Location: ??
(34.9170°N, 135.5016°E)
Time: 12:33:51
(UTC+00:00)

Cosmos 1980 Rocket - Pass Details

Date: 29 October 2020
Orbit: 831 x 848 km, 71.0° (Epoch: 27 November)

Event Time Altitude Azimuth Distance (km) Brightness Sun altitude
Exits shadow 19:38:55 - 341° (NNW) 3,084 4.9 -20.6°
Reaches altitude 10° 19:40:37 10° 343° (NNW) 2,442 4.4 -20.3°
Maximum altitude 19:46:12 72° 68° (ENE) 874 2.4 -19.1°
Drops below altitude 10° 19:51:46 10° 153° (SSE) 2,435 5.0 -18.0°
Sets 19:54:13 0° 155° (SSE) 3,368 5.7 -17.5°
